Hourly Weather Sudniki

Today, 15 January, Friday

Time Temperature Precipitation Wind Pressure Humidity
00:00 -18°C° 0 mm 1 mps 734 mmHg 95%
01:00 -18°C° 0 mm 1 mps 735 mmHg 95%
02:00 -17°C° 0 mm 1 mps 735 mmHg 96%
03:00 -18°C° 0 mm 1 mps 735 mmHg 95%
04:00 -18°C° 0 mm 1 mps 735 mmHg 95%
05:00 -18°C° 0 mm 1 mps 735 mmHg 95%
06:00 -18°C° 0 mm 1 mps 735 mmHg 95%
07:00 -19°C° 0 mm 1 mps 735 mmHg 96%
08:00 -19°C° 0 mm 1 mps 735 mmHg 96%
09:00 -19°C° 0 mm 1 mps 735 mmHg 94%
10:00 -18°C° 0 mm 1 mps 736 mmHg 92%
11:00 -18°C° 0 mm 1 mps 736 mmHg 89%
12:00 -17°C° 0 mm 1 mps 736 mmHg 89%
13:00 -17°C° 0 mm 1 mps 736 mmHg 88%
14:00 -16°C° 0 mm 1 mps 736 mmHg 89%
15:00 -17°C° 0 mm 1 mps 736 mmHg 91%
16:00 -17°C° 0 mm 1 mps 736 mmHg 93%
17:00 -18°C° 0 mm 1 mps 736 mmHg 95%
18:00 -18°C° 0 mm 1 mps 736 mmHg 94%
19:00 -18°C° 0 mm 1 mps 736 mmHg 94%
20:00 -18°C° 0 mm 1 mps 736 mmHg 94%
21:00 -18°C° 0 mm 1 mps 736 mmHg 94%
22:00 -18°C° 0 mm 1 mps 736 mmHg 95%
23:00 -19°C° 0 mm 1 mps 736 mmHg 95%

Tomorrow, 16 January, Saturday

Time Temperature Precipitation Wind Pressure Humidity
00:00 -19°C° 0 mm 1 mps 736 mmHg 95%
01:00 -19°C° 0 mm 1 mps 736 mmHg 96%
02:00 -21°C° 0 mm 2 mps 736 mmHg 96%
03:00 -21°C° 0 mm 2 mps 736 mmHg 96%
04:00 -21°C° 0 mm 2 mps 736 mmHg 96%
05:00 -23°C° 0 mm 2 mps 736 mmHg 96%
06:00 -20°C° 0 mm 1 mps 736 mmHg 96%
07:00 -21°C° 0 mm 1 mps 736 mmHg 96%
08:00 -21°C° 0 mm 1 mps 737 mmHg 97%
09:00 -20°C° 0 mm 1 mps 737 mmHg 96%
10:00 -23°C° 0 mm 2 mps 737 mmHg 94%
11:00 -21°C° 0 mm 2 mps 737 mmHg 93%
12:00 -21°C° 0 mm 2 mps 738 mmHg 92%
13:00 -20°C° 0 mm 2 mps 738 mmHg 92%
14:00 -20°C° 0 mm 2 mps 738 mmHg 91%
15:00 -20°C° 0 mm 2 mps 738 mmHg 93%
16:00 -20°C° 0 mm 2 mps 737 mmHg 94%
17:00 -20°C° 0 mm 2 mps 737 mmHg 95%
18:00 -20°C° 0 mm 2 mps 738 mmHg 95%
19:00 -20°C° 0 mm 2 mps 738 mmHg 95%
20:00 -22°C° 0 mm 3 mps 738 mmHg 95%
21:00 -21°C° 0.2 mm 3 mps 738 mmHg 94%
22:00 -21°C° 0.2 mm 3 mps 738 mmHg 94%
23:00 -21°C° 0.2 mm 3 mps 738 mmHg 94%

Day after tomorrow, 17 January, Sunday

Time Temperature Precipitation Wind Pressure Humidity
00:00 -19°C° 0 mm 2 mps 739 mmHg 94%
01:00 -20°C° 0 mm 2 mps 739 mmHg 94%
02:00 -20°C° 0 mm 2 mps 739 mmHg 95%
03:00 -20°C° 0 mm 2 mps 739 mmHg 95%
04:00 -20°C° 0 mm 2 mps 739 mmHg 95%
05:00 -20°C° 0 mm 2 mps 739 mmHg 95%
06:00 -21°C° 0 mm 2 mps 739 mmHg 96%
07:00 -23°C° 0 mm 2 mps 739 mmHg 97%
08:00 -24°C° 0 mm 2 mps 740 mmHg 97%
09:00 -23°C° 0 mm 2 mps 740 mmHg 94%
10:00 -21°C° 0 mm 2 mps 740 mmHg 91%
11:00 -20°C° 0 mm 2 mps 741 mmHg 88%
12:00 -19°C° 0 mm 2 mps 741 mmHg 87%
13:00 -17°C° 0 mm 1 mps 741 mmHg 87%
14:00 -16°C° 0 mm 1 mps 741 mmHg 86%
15:00 -17°C° 0 mm 1 mps 741 mmHg 88%
16:00 -18°C° 0 mm 1 mps 741 mmHg 91%
17:00 -20°C° 0 mm 1 mps 741 mmHg 93%
18:00 -20°C° 0 mm 1 mps 742 mmHg 93%
19:00 -20°C° 0 mm 1 mps 742 mmHg 93%
20:00 -20°C° 0 mm 1 mps 742 mmHg 93%
21:00 -20°C° 0 mm 1 mps 742 mmHg 94%
22:00 -21°C° 0 mm 1 mps 742 mmHg 95%
23:00 -21°C° 0 mm 1 mps 742 mmHg 95%

18 January, Monday

Time Temperature Precipitation Wind Pressure Humidity
00:00 -21°C° 0 mm 1 mps 742 mmHg 96%
01:00 -21°C° 0 mm 1 mps 742 mmHg 97%
02:00 -21°C° 0 mm 0 mps 742 mmHg 98%
03:00 -21°C° 0 mm 0 mps 742 mmHg 98%
04:00 -21°C° 0 mm 0 mps 742 mmHg 99%
05:00 -21°C° 0 mm 0 mps 742 mmHg 99%
06:00 -21°C° 0 mm 0 mps 742 mmHg 99%
07:00 -20°C° 0 mm 0 mps 742 mmHg 99%
08:00 -20°C° 0 mm 1 mps 743 mmHg 98%
09:00 -19°C° 0 mm 1 mps 743 mmHg 96%
10:00 -17°C° 0 mm 1 mps 743 mmHg 94%
11:00 -16°C° 0 mm 1 mps 743 mmHg 92%
12:00 -15°C° 0 mm 1 mps 742 mmHg 92%
13:00 -15°C° 0 mm 0 mps 742 mmHg 92%
14:00 -14°C° 0 mm 0 mps 742 mmHg 91%
15:00 -15°C° 0 mm 0 mps 742 mmHg 93%
16:00 -16°C° 0 mm 0 mps 742 mmHg 95%
17:00 -17°C° 0 mm 1 mps 742 mmHg 97%
18:00 -17°C° 0 mm 0 mps 742 mmHg 97%
19:00 -17°C° 0 mm 0 mps 742 mmHg 97%
20:00 -18°C° 0 mm 0 mps 742 mmHg 98%
21:00 -17°C° 0 mm 0 mps 742 mmHg 97%
22:00 -17°C° 0 mm 0 mps 742 mmHg 97%
23:00 -17°C° 0 mm 0 mps 743 mmHg 97%

19 January, Tuesday

Time Temperature Precipitation Wind Pressure Humidity
00:00 -16°C° 0 mm 0 mps 743 mmHg 97%
01:00 -16°C° 0 mm 0 mps 743 mmHg 97%
02:00 -16°C° 0 mm 0 mps 743 mmHg 97%
03:00 -16°C° 0 mm 0 mps 743 mmHg 97%
04:00 -16°C° 0 mm 0 mps 742 mmHg 97%
05:00 -17°C° 0 mm 0 mps 742 mmHg 97%
06:00 -17°C° 0 mm 0 mps 743 mmHg 98%
07:00 -17°C° 0 mm 0 mps 743 mmHg 98%
08:00 -17°C° 0 mm 0 mps 743 mmHg 98%
09:00 -16°C° 0 mm 0 mps 743 mmHg 96%
10:00 -14°C° 0 mm 0 mps 743 mmHg 94%
11:00 -13°C° 0 mm 0 mps 744 mmHg 92%
12:00 -13°C° 0 mm 0 mps 744 mmHg 92%
13:00 -12°C° 0 mm 1 mps 743 mmHg 92%
14:00 -12°C° 0 mm 1 mps 743 mmHg 92%
15:00 -13°C° 0 mm 1 mps 744 mmHg 94%
16:00 -14°C° 0 mm 1 mps 744 mmHg 95%
17:00 -16°C° 0 mm 1 mps 744 mmHg 97%
18:00 -16°C° 0 mm 1 mps 744 mmHg 97%
19:00 -16°C° 0 mm 1 mps 744 mmHg 97%
20:00 -16°C° 0 mm 1 mps 744 mmHg 97%
21:00 -16°C° 0 mm 1 mps 744 mmHg 97%
22:00 -17°C° 0 mm 1 mps 745 mmHg 97%
23:00 -17°C° 0 mm 1 mps 745 mmHg 97%

20 January, Wednesday

Time Temperature Precipitation Wind Pressure Humidity
00:00 -17°C° 0 mm 1 mps 745 mmHg 97%
01:00 -17°C° 0 mm 1 mps 745 mmHg 97%
02:00 -17°C° 0 mm 1 mps 745 mmHg 97%
03:00 -19°C° 0 mm 2 mps 745 mmHg 97%
04:00 -19°C° 0 mm 2 mps 745 mmHg 97%
05:00 -19°C° 0 mm 2 mps 745 mmHg 97%
06:00 -19°C° 0 mm 2 mps 745 mmHg 97%
07:00 -19°C° 0 mm 2 mps 745 mmHg 97%
08:00 -19°C° 0 mm 2 mps 745 mmHg 97%
09:00 -19°C° 0 mm 3 mps 745 mmHg 95%
10:00 -18°C° 0 mm 3 mps 745 mmHg 94%
11:00 -17°C° 0 mm 3 mps 745 mmHg 92%
12:00 -16°C° 0 mm 3 mps 745 mmHg 92%
13:00 -16°C° 0 mm 4 mps 744 mmHg 92%
14:00 -16°C° 0 mm 4 mps 744 mmHg 91%
15:00 -16°C° 0 mm 4 mps 744 mmHg 92%
16:00 -17°C° 0 mm 4 mps 743 mmHg 92%
17:00 -17°C° 0 mm 4 mps 743 mmHg 92%
18:00 -18°C° 0 mm 5 mps 743 mmHg 92%
19:00 -17°C° 0 mm 5 mps 743 mmHg 91%
20:00 -17°C° 0 mm 5 mps 743 mmHg 90%
21:00 -17°C° 0 mm 5 mps 743 mmHg 91%
22:00 -15°C° 0 mm 5 mps 742 mmHg 91%
23:00 -15°C° 0 mm 5 mps 742 mmHg 92%
Show more